Location: Zagreb
(45.8150°N, 15.9819°E)
Time: 19:19:39
(UTC+01:00)

STARLINK-1710 - Pass Details

Date: 21 September 2020
Orbit: 378 x 381 km, 53.0° (Epoch: 27 October)

Event Time Altitude Azimuth Distance (km) Brightness Sun altitude
Exits shadow 04:53:33 24° 338° (NNW) 848 4.6 -19.3°
Maximum altitude 04:53:52 24° 349° (N) 837 4.6 -19.2°
Drops below altitude 10° 04:56:31 10° 46° (NE) 1,405 6.7 -18.8°
Sets 04:58:49 0° 61° (ENE) 2,259 8.4 -18.4°
